H1 CPF  2  DGF 2024 10 09 10 283 01 etalon1    NONE      
H2  8900103  525    19751 2024 10 09 00 00 00 2024 10 16 00 00 00   120 1 1  0 0 0 1
H5  0.5673
H9
10 0 60595      0.000000  0      13008902.960      13078363.524     -17625717.656
10 0 60595    120.000000  0      13110896.738      13347827.154     -17347475.315
10 0 60595    240.000000  0      13214033.228      13611905.808     -17063237.961
10 0 60595    360.000000  0      13318190.195      13870510.078     -16773104.504
10 0 60595    480.000000  0      13423243.600      14123554.205     -16477175.870
10 0 60595    600.000000  0      13529067.703      14370956.125     -16175554.957
10 0 60595    720.000000  0      13635535.157      14612637.526     -15868346.605
10 0 60595    840.000000  0      13742517.110      14848523.888     -15555657.554
10 0 60595    960.000000  0      13849883.307      15078544.533     -15237596.410
10 0 60595   1080.000000  0      13957502.193      15302632.667     -14914273.607
10 0 60595   1200.000000  0      14065241.013      15520725.413     -14585801.366
10 0 60595   1320.000000  0      14172965.921      15732763.852     -14252293.657
10 0 60595   1440.000000  0      14280542.081      15938693.055     -13913866.160
10 0 60595   1560.000000  0      14387833.775      16138462.112     -13570636.221
10 0 60595   1680.000000  0      14494704.511      16332024.160     -13222722.818
10 0 60595   1800.000000  0      14601017.128      16519336.408     -12870246.512
10 0 60595   1920.000000  0      14706633.906      16700360.155     -12513329.410
10 0 60595   2040.000000  0      14811416.673      16875060.811     -12152095.121
10 0 60595   2160.000000  0      14915226.913      17043407.913     -11786668.712
10 0 60595   2280.000000  0      15017925.879      17205375.134     -11417176.666
10 0 60595   2400.000000  0      15119374.697      17360940.294     -11043746.840
10 0 60595   2520.000000  0      15219434.481      17510085.367     -10666508.416
10 0 60595   2640.000000  0      15317966.437      17652796.483     -10285591.861
10 0 60595   2760.000000  0      15414831.977      17789063.925      -9901128.877
10 0 60595   2880.000000  0      15509892.828      17918882.134      -9513252.363
10 0 60595   3000.000000  0      15603011.138      18042249.696      -9122096.361
10 0 60595   3120.000000  0      15694049.586      18159169.335      -8727796.015
10 0 60595   3240.000000  0      15782871.496      18269647.901      -8330487.524
10 0 60595   3360.000000  0      15869340.937      18373696.357      -7930308.091
10 0 60595   3480.000000  0      15953322.837      18471329.759      -7527395.883
10 0 60595   3600.000000  0      16034683.086      18562567.234      -7121889.978
10 0 60595   3720.000000  0      16113288.647      18647431.960      -6713930.318
10 0 60595   3840.000000  0      16189007.657      18725951.136      -6303657.663
10 0 60595   3960.000000  0      16261709.536      18798155.952      -5891213.543
10 0 60595   4080.000000  0      16331265.086      18864081.561      -5476740.207
10 0 60595   4200.000000  0      16397546.600      18923767.036      -5060380.575
10 0 60595   4320.000000  0      16460427.961      18977255.341      -4642278.192
10 0 60595   4440.000000  0      16519784.743      19024593.282      -4222577.177
10 0 60595   4560.000000  0      16575494.309      19065831.466      -3801422.172
10 0 60595   4680.000000  0      16627435.914      19101024.258      -3378958.295
10 0 60595   4800.000000  0      16675490.798      19130229.727      -2955331.092
10 0 60595   4920.000000  0      16719542.283      19153509.594      -2530686.483
10 0 60595   5040.000000  0      16759475.867      19170929.184      -2105170.717
10 0 60595   5160.000000  0      16795179.317      19182557.359      -1678930.320
10 0 60595   5280.000000  0      16826542.761      19188466.469      -1252112.042
10 0 60595   5400.000000  0      16853458.775      19188732.282       -824862.816
10 0 60595   5520.000000  0      16875822.470      19183433.923       -397329.700
10 0 60595   5640.000000  0      16893531.584      19172653.806         30340.172
10 0 60595   5760.000000  0      16906486.557      19156477.567        457999.635
10 0 60595   5880.000000  0      16914590.620      19134993.989        885501.548
10 0 60595   6000.000000  0      16917749.869      19108294.933       1312698.839
10 0 60595   6120.000000  0      16915873.349      19076475.256       1739444.561
10 0 60595   6240.000000  0      16908873.125      19039632.740       2165591.937
10 0 60595   6360.000000  0      16896664.358      18997868.005       2590994.409
10 0 60595   6480.000000  0      16879165.375      18951284.433       3015505.692
10 0 60595   6600.000000  0      16856297.738      18899988.079       3438979.820
10 0 60595   6720.000000  0      16827986.313      18844087.591       3861271.195
10 0 60595   6840.000000  0      16794159.330      18783694.115       4282234.640
10 0 60595   6960.000000  0      16754748.449      18718921.213       4701725.443
10 0 60595   7080.000000  0      16709688.817      18649884.766       5119599.409
10 0 60595   7200.000000  0      16658919.128      18576702.885       5535712.907
10 0 60595   7320.000000  0      16602381.672      18499495.815       5949922.922
10 0 60595   7440.000000  0      16540022.390      18418385.841       6362087.097
10 0 60595   7560.000000  0      16471790.926      18333497.188       6772063.787
10 0 60595   7680.000000  0      16397640.666      18244955.926       7179712.102
10 0 60595   7800.000000  0      16317528.789      18152889.869       7584891.959
10 0 60595   7920.000000  0      16231416.304      18057428.471       7987464.125
10 0 60595   8040.000000  0      16139268.089      17958702.730       8387290.268
10 0 60595   8160.000000  0      16041052.926      17856845.081       8784232.998
10 0 60595   8280.000000  0      15936743.535      17751989.293       9178155.919
10 0 60595   8400.000000  0      15826316.603      17644270.364       9568923.673
10 0 60595   8520.000000  0      15709752.810      17533824.414       9956401.983
10 0 60595   8640.000000  0      15587036.854      17420788.584      10340457.701
10 0 60595   8760.000000  0      15458157.472      17305300.923      10720958.854
10 0 60595   8880.000000  0      15323107.457      17187500.280      11097774.685
10 0 60595   9000.000000  0      15181883.674      17067526.204      11470775.697
10 0 60595   9120.000000  0      15034487.074      16945518.826      11839833.702
10 0 60595   9240.000000  0      14880922.699      16821618.755      12204821.857
10 0 60595   9360.000000  0      14721199.693      16695966.971      12565614.711
10 0 60595   9480.000000  0      14555331.303      16568704.710      12922088.248
10 0 60595   9600.000000  0      14383334.879      16439973.358      13274119.925
10 0 60595   9720.000000  0      14205231.871      16309914.344      13621588.716
10 0 60595   9840.000000  0      14021047.826      16178669.026      13964375.154
10 0 60595   9960.000000  0      13830812.377      16046378.585      14302361.366
10 0 60595  10080.000000  0      13634559.234      15913183.915      14635431.119
10 0 60595  10200.000000  0      13432326.164      15779225.515      14963469.856
10 0 60595  10320.000000  0      13224154.983      15644643.382      15286364.735
10 0 60595  10440.000000  0      13010091.524      15509576.900      15604004.667
10 0 60595  10560.000000  0      12790185.624      15374164.736      15916280.354
10 0 60595  10680.000000  0      12564491.092      15238544.732      16223084.325
10 0 60595  10800.000000  0      12333065.681      15102853.799      16524310.974
10 0 60595  10920.000000  0      12095971.057      14967227.815      16819856.596
10 0 60595  11040.000000  0      11853272.765      14831801.515      17109619.418
10 0 60595  11160.000000  0      11605040.188      14696708.393      17393499.640
10 0 60595  11280.000000  0      11351346.508      14562080.600      17671399.461
10 0 60595  11400.000000  0      11092268.666      14428048.836      17943223.121
10 0 60595  11520.000000  0      10827887.311      14294742.261      18208876.927
10 0 60595  11640.000000  0      10558286.756      14162288.384      18468269.286
10 0 60595  11760.000000  0      10283554.921      14030812.978      18721310.739
10 0 60595  11880.000000  0      10003783.287      13900439.972      18967913.989
10 0 60595  12000.000000  0       9719066.831      13771291.367      19207993.930
10 0 60595  12120.000000  0       9429503.972      13643487.136      19441467.680
10 0 60595  12240.000000  0       9135196.509      13517145.133      19668254.605
10 0 60595  12360.000000  0       8836249.555      13392381.009      19888276.350
10 0 60595  12480.000000  0       8532771.471      13269308.117      20101456.862
10 0 60595  12600.000000  0       8224873.798      13148037.428      20307722.422
10 0 60595  12720.000000  0       7912671.186      13028677.449      20507001.663
10 0 60595  12840.000000  0       7596281.318      12911334.137      20699225.602
10 0 60595  12960.000000  0       7275824.837      12796110.821      20884327.659
10 0 60595  13080.000000  0       6951425.266      12683108.120      21062243.679
10 0 60595  13200.000000  0       6623208.929      12572423.872      21232911.962
10 0 60595  13320.000000  0       6291304.869      12464153.054      21396273.274
10 0 60595  13440.000000  0       5955844.763      12358387.714      21552270.877
10 0 60595  13560.000000  0       5616962.835      12255216.899      21700850.541
10 0 60595  13680.000000  0       5274795.772      12154726.588      21841960.570
10 0 60595  13800.000000  0       4929482.628      12056999.626      21975551.816
10 0 60595  13920.000000  0       4581164.739      11962115.665      22101577.695
10 0 60595  14040.000000  0       4229985.623      11870151.098      22219994.210
10 0 60595  14160.000000  0       3876090.892      11781179.005      22330759.960
10 0 60595  14280.000000  0       3519628.149      11695269.096      22433836.158
99